SCP
0 0 0 0 0 0 0 0 0 0 0 0 0 0 0 0 0 0 0 0 0 0 0 0 0 0 0 0 0 0 0 0 0 0 0 0 0 0
0 0 0 0 0 0 0 0 0 0 0 0 0 0 0 0 0 0 0 0 0 0 0 0 0 0 0 0 0 0 0 0 0 0 0 0 0 0
0 0 0 0 0 0 0 0 0 0 0 0 0 0 0 0 0 0 0 0 0 0 0 0 0 0 0 0 0 0 0 0 0 0 0 0 0 0
0 0 0 0 0 0 0 0 0 0 0 0 0 0 0 0 0 0 0 0 0 0 0 0 0 0 0 0 0 0 0 0 0 0 0 0 0 0
0 0 0 0 0 0 0 0 0 0 0 0 0 0 0 0 0 0 0 0 0 0 0 0 0 0 0 0 0 0 0 0 0 0 0 0 0 0
0 0 0 0 0 0 0 0 0 0 0 0 0 0 0 0 0 0 0 0 0 0 0 0 0 0 0 0 0 0 0 0 0 0 0 0 0 0
0 0 0 0 0 0 0 0 0 0 0 0 0 0 0 0 0 0 0 0 0 0 0 0 0 0 0 0 0 0 0 0 0 0 0 0 0 0
0 0 0 0 0 0 0 0 0 0 0 0 0 0 0 0 0 0 0 0 0 0 0 0 0 0 0 0 0 0 0 0 0 0 0 0 0 0
0 0 0 0 0 0 0 0 0 0 0 0 0 0 0 0 0 0 0 0 0 0 0 0 0 0 0 0 0 0 0 0 0 0 0 0 0 0
0 0 0 0 0 0 0 0 0 0 0 0 0 0 0 0 0 0 0 0 0 0 0 0 0 0 0 0 0 0 0 0 0 0 0 0 0 0
0 0 0 0 0 0 0 0 0 0 0 0 0 0 0 0 0 0 0 0 0 0 0 0 0 0 0 0 0 0 0 0 0 0 0 0 0 0
0 0 0 0 0 0 0 0 0 0 0 0 0 0 0 0 0 0 0 0 0 0 0 0 0 0 0 0 0 0 0 0 0 0 0 0 0 0
0 0 0 0 0 0 0 0 0 0 0 0 0 0 0 0 0 0 0 0 0 0 0 0 0 0 0 0 0 0 0 0 0 0 0 0 0 0
0 0 0 0 0 0 0 0 0 0 0 0 0 0 0 0 0 0 0 0 0 0 0 0 0 0 0 0 0 0 0 0 0 0 0 0 0 0
0 0 0 0 0 0 0 0 0 0 0 0 0 0 0 0 0 0 0 0 0 0 0 0 0 0 0 0 0 0 0 0 0 0 0 0 0 0
0 0 0 0 0 0 0 0 0 0 0 0 0 0 0 0 0 0 0 0 0 0 0 0 0 0 0 0 0 0 0 0 0 0 0 0 0 0
0 0 0 0 0 0 0 0 0 0 0 0 0 0 0 0 0 0 0 0 0 0 0 0 0 0 0 0 0 0 0 0 0 0 0 0 0 0
0 0 0 0 0 0 0 0 0 0 0 0 0 0 0 0 0 0 0 0 0 0 0 0 0 0 0 0 0 0 0 0 0 0 0 0 0 0
0 0 0 0 0 0 0 0 0 0 0 0 0 0 0 0 0 0 0 0 0 0 0 0 0 0 0 0 0 0 0 0 0 0 0 0 0 0
0 0 0 0 0 0 0 0 0 0 0 0 0 0 0 0 0 0 0 0 0 0 0 0 0 0 0 0 0 0 0 0 0 0 0 0 0 0
0 0 0 0 0 0 0 0 0 0 0 0 0 0 0 0 0 0 0 0 0 0 0 0 0 0 0 0 0 0 0 0 0 0 0 0 0 0
0 0 0 0 0 0 0 0 0 0 0 0 0 0 0 0 0 0 0 0 0 0 0 0 0 0 0 0 0 0 0 0 0 0 0 0 0 0
0 0 0 0 0 0 0 0 0 0 0 0 0 0 0 0 0 0 0 0 0 0 0 0 0 0 0 0 0 0 0 0 0 0 0 0 0 0
Wind_Speed_500mb
77 86 103 90 99 87 74 43 70 49 57 63 76 80 80 75 88 95 87 77 70 67 66 57 37 31 32 29 28 25 23 21 20 19 18 18 19 18
87 96 107 98 93 65 73 61 51 55 64 73 93 93 96 91 87 89 85 81 79 79 69 60 48 34 32 30 29 28 24 23 21 19 19 18 17 16
84 87 110 96 97 94 89 84 42 67 57 80 93 89 91 93 84 82 83 90 77 65 64 60 40 47 37 31 28 29 26 25 22 21 20 19 17 17
93 98 92 89 93 101 97 96 71 63 89 76 93 105 92 90 97 98 83 70 70 63 62 54 64 38 38 34 34 28 32 28 25 22 21 18 18 16
93 93 99 96 92 97 101 99 96 94 90 106 90 92 92 93 94 94 96 82 70 62 63 66 45 44 42 45 38 37 35 30 26 21 21 19 19 18
98 93 93 96 85 106 103 102 108 104 106 93 74 78 86 91 98 103 93 79 73 73 68 62 57 53 50 45 48 39 37 33 26 26 24 19 19 19
91 85 92 93 94 96 99 106 110 104 98 86 69 75 86 96 106 102 97 90 82 82 75 68 63 63 58 54 48 45 39 33 33 27 22 23 18 21
90 90 89 92 91 95 99 97 97 102 91 83 84 80 86 97 110 107 103 94 81 77 76 70 72 67 59 54 52 49 40 39 31 26 26 20 19 21
101 94 92 98 96 93 87 82 80 84 79 74 82 85 87 100 113 107 103 100 92 80 75 68 70 64 60 54 48 43 40 32 30 27 23 23 24 21
101 95 95 99 94 91 87 84 77 74 68 68 62 67 72 80 90 112 106 96 89 80 74 71 72 65 59 51 45 42 31 31 30 26 24 23 24 17
98 93 90 94 96 92 88 82 79 70 61 52 47 46 47 69 87 99 98 93 81 70 73 77 74 64 53 48 43 38 39 38 30 28 29 21 22 12
101 100 97 97 97 95 90 86 78 77 70 63 60 59 66 72 86 92 96 93 89 67 71 67 60 63 47 49 46 53 48 35 39 34 24 22 15 12
103 101 100 99 94 93 93 86 83 85 76 69 67 65 60 53 55 66 63 68 77 72 71 71 60 59 46 41 55 55 47 48 43 37 29 21 15 12
104 102 98 88 83 85 88 86 91 93 86 85 79 69 64 61 53 46 44 50 57 50 57 61 65 68 68 53 50 61 57 57 46 36 27 19 14 15
96 94 84 75 70 76 79 86 89 99 94 82 74 66 61 56 52 53 55 53 55 55 51 54 62 65 65 65 58 52 63 54 42 36 28 20 19 16
89 86 85 83 82 75 80 88 96 94 94 84 74 65 61 59 58 58 53 56 56 54 50 53 49 53 62 52 42 39 47 34 44 39 27 24 20 13
100 92 87 83 81 79 82 87 88 84 81 76 73 77 77 80 74 74 72 70 64 63 60 53 48 43 54 47 41 35 41 45 35 35 30 26 20 14
101 95 89 83 80 76 75 76 78 76 75 75 71 64 66 67 69 68 63 62 63 63 60 59 56 54 48 38 33 39 44 39 34 37 31 26 20 15
96 88 84 80 78 76 73 68 64 60 58 58 65 67 65 67 68 67 64 61 61 63 61 60 59 55 58 56 50 50 43 44 37 35 30 23 16 15
89 87 81 77 71 67 62 61 55 51 46 45 49 52 56 60 63 62 62 60 61 61 59 54 51 48 46 49 46 52 47 38 36 32 28 25 22 20
75 70 63 61 61 59 58 56 53 48 45 43 42 46 50 54 60 61 59 53 54 53 50 48 47 43 40 36 36 51 48 45 39 32 30 27 26 27
72 68 61 58 52 49 46 45 48 44 42 40 41 41 43 44 47 51 51 50 50 49 46 49 50 46 42 36 35 48 50 44 37 34 33 30 33 25
63 61 57 57 53 48 45 44 43 42 37 37 36 37 37 40 39 41 44 45 46 49 52 55 53 45 39 36 38 49 48 42 38 34 33 27 25 27
Wind_Direction_500mb
225 226 209 215 217 221 224 229 208 191 182 188 190 199 203 206 200 203 205 213 221 209 216 220 227 231 220 227 235 243 249 252 261 265 271 279 283 289
218 211 209 206 210 199 211 197 206 217 206 203 192 192 203 216 220 214 204 214 218 217 216 210 227 238 232 237 243 250 257 263 262 260 271 279 283 296
211 217 221 216 213 209 209 194 187 217 217 211 205 212 210 214 213 202 205 211 213 216 221 216 231 237 243 248 247 253 258 263 261 264 269 273 281 298
216 217 219 220 214 214 210 205 207 211 218 217 211 216 213 203 202 202 208 206 205 209 209 209 217 230 244 247 246 248 253 255 252 261 268 275 285 300
215 216 218 214 210 209 207 208 206 212 211 220 218 217 217 212 203 202 206 202 199 208 214 222 232 232 240 247 247 253 250 248 247 256 262 272 283 305
218 218 222 215 209 208 209 207 212 216 211 213 217 210 212 207 203 203 197 197 194 198 201 208 221 229 235 240 246 246 248 247 246 254 261 273 279 291
223 219 218 216 213 215 210 211 213 214 211 211 214 208 207 203 199 199 195 191 193 199 198 205 213 221 224 230 235 240 243 242 248 253 256 256 268 305
220 217 217 221 218 217 218 218 220 212 209 209 213 216 213 207 202 199 197 187 189 198 201 204 216 217 220 223 231 237 235 236 243 244 248 252 275 315
222 221 223 219 215 215 215 219 219 220 226 224 219 218 217 209 205 198 196 193 196 199 199 204 214 215 219 221 226 230 230 232 240 240 243 259 281 293
224 220 221 217 214 209 208 208 209 214 214 220 226 224 222 217 214 208 202 202 205 203 204 203 211 216 219 223 228 229 229 232 234 233 246 264 279 285
221 227 219 220 211 210 207 201 199 204 204 207 213 221 227 216 209 202 198 200 195 200 204 213 214 216 218 222 226 231 236 235 224 231 248 265 268 281
218 221 219 212 209 208 200 196 194 193 189 188 201 213 219 214 211 211 213 208 199 193 201 200 202 206 202 214 225 233 224 216 231 235 238 241 249 271
211 214 213 209 213 205 199 196 196 184 183 183 180 174 175 176 186 200 209 214 206 204 212 207 206 205 207 206 213 217 220 225 224 223 218 223 235 255
213 205 202 204 200 193 193 197 191 190 186 181 179 180 179 177 176 183 190 200 206 213 224 219 222 221 215 205 199 212 216 221 219 221 215 216 232 239
209 195 186 182 182 191 191 194 187 182 177 171 172 176 181 186 186 194 197 205 212 211 212 218 221 223 217 218 215 218 209 211 218 218 210 211 226 224
170 165 164 169 174 177 182 181 179 179 182 183 185 191 197 202 202 203 207 208 206 203 201 198 210 213 210 211 215 209 207 203 211 207 200 215 209 211
152 148 150 156 162 171 178 179 181 186 192 199 208 214 221 220 223 220 216 208 202 196 188 191 193 194 197 202 201 209 205 199 192 198 201 200 198 193
133 136 141 146 151 155 160 172 187 197 204 207 207 205 200 195 195 194 200 198 196 192 193 190 185 178 183 189 195 193 188 196 186 190 194 194 192 183
122 124 127 134 137 142 148 154 160 170 177 186 188 185 187 188 189 187 189 192 191 189 189 186 186 187 178 173 177 183 193 188 190 189 188 188 179 174
110 112 115 118 122 126 132 136 141 149 158 170 174 179 182 182 181 181 185 185 181 178 178 181 183 185 192 186 179 183 184 187 185 184 182 179 175 173
106 109 111 112 114 119 122 124 127 133 139 146 155 168 173 176 175 176 178 178 174 173 174 176 179 182 185 184 188 184 184 180 179 179 182 181 178 171
97 100 106 114 122 127 129 132 132 132 135 141 150 160 166 172 175 176 179 177 179 180 181 181 182 185 188 187 188 184 179 177 177 179 181 186 176 173
97 101 104 104 107 112 119 127 135 140 147 153 155 161 166 171 177 182 184 184 185 185 187 185 184 184 185 182 186 181 178 177 177 178 182 188 175 174
Wind_Speed_850mb
77 86 103 90 99 87 74 43 70 49 57 63 76 80 80 75 88 95 87 77 70 67 66 57 37 31 32 29 28 25 23 21 20 19 18 18 19 18
87 96 107 98 93 65 73 61 51 55 64 73 93 93 96 91 87 89 85 81 79 79 69 60 48 34 32 30 29 28 24 23 21 19 19 18 17 16
84 87 110 96 97 94 89 84 42 67 57 80 93 89 91 93 84 82 83 90 77 65 64 60 40 47 37 31 28 29 26 25 22 21 20 19 17 17
93 98 92 89 93 101 97 96 71 63 89 76 93 105 92 90 97 98 83 70 70 63 62 54 64 38 38 34 34 28 32 28 25 22 21 18 18 16
93 93 99 96 92 97 101 99 96 94 90 106 90 92 92 93 94 94 96 82 70 62 63 66 45 44 42 45 38 37 35 30 26 21 21 19 19 18
98 93 93 96 85 106 103 102 108 104 106 93 74 78 86 91 98 103 93 79 73 73 68 62 57 53 50 45 48 39 37 33 26 26 24 19 19 19
91 85 92 93 94 96 99 106 110 104 98 86 69 75 86 96 106 102 97 90 82 82 75 68 63 63 58 54 48 45 39 33 33 27 22 23 18 21
90 90 89 92 91 95 99 97 97 102 91 83 84 80 86 97 110 107 103 94 81 77 76 70 72 67 59 54 52 49 40 39 31 26 26 20 19 21
101 94 92 98 96 93 87 82 80 84 79 74 82 85 87 100 113 107 103 100 92 80 75 68 70 64 60 54 48 43 40 32 30 27 23 23 24 21
101 95 95 99 94 91 87 84 77 74 68 68 62 67 72 80 90 112 106 96 89 80 74 71 72 65 59 51 45 42 31 31 30 26 24 23 24 17
98 93 90 94 96 92 88 82 79 70 61 52 47 46 47 69 87 99 98 93 81 70 73 77 74 64 53 48 43 38 39 38 30 28 29 21 22 12
101 100 97 97 97 95 90 86 78 77 70 63 60 59 66 72 86 92 96 93 89 67 71 67 60 63 47 49 46 53 48 35 39 34 24 22 15 12
103 101 100 99 94 93 93 86 83 85 76 69 67 65 60 53 55 66 63 68 77 72 71 71 60 59 46 41 55 55 47 48 43 37 29 21 15 12
104 102 98 88 83 85 88 86 91 93 86 85 79 69 64 61 53 46 44 50 57 50 57 61 65 68 68 53 50 61 57 57 46 36 27 19 14 15
96 94 84 75 70 76 79 86 89 99 94 82 74 66 61 56 52 53 55 53 55 55 51 54 62 65 65 65 58 52 63 54 42 36 28 20 19 16
89 86 85 83 82 75 80 88 96 94 94 84 74 65 61 59 58 58 53 56 56 54 50 53 49 53 62 52 42 39 47 34 44 39 27 24 20 13
100 92 87 83 81 79 82 87 88 84 81 76 73 77 77 80 74 74 72 70 64 63 60 53 48 43 54 47 41 35 41 45 35 35 30 26 20 14
101 95 89 83 80 76 75 76 78 76 75 75 71 64 66 67 69 68 63 62 63 63 60 59 56 54 48 38 33 39 44 39 34 37 31 26 20 15
96 88 84 80 78 76 73 68 64 60 58 58 65 67 65 67 68 67 64 61 61 63 61 60 59 55 58 56 50 50 43 44 37 35 30 23 16 15
89 87 81 77 71 67 62 61 55 51 46 45 49 52 56 60 63 62 62 60 61 61 59 54 51 48 46 49 46 52 47 38 36 32 28 25 22 20
75 70 63 61 61 59 58 56 53 48 45 43 42 46 50 54 60 61 59 53 54 53 50 48 47 43 40 36 36 51 48 45 39 32 30 27 26 27
72 68 61 58 52 49 46 45 48 44 42 40 41 41 43 44 47 51 51 50 50 49 46 49 50 46 42 36 35 48 50 44 37 34 33 30 33 25
63 61 57 57 53 48 45 44 43 42 37 37 36 37 37 40 39 41 44 45 46 49 52 55 53 45 39 36 38 49 48 42 38 34 33 27 25 27
Wind_Direction_850mb
225 226 209 215 217 221 224 229 208 191 182 188 190 199 203 206 200 203 205 213 221 209 216 220 227 231 220 227 235 243 249 252 261 265 271 279 283 289
218 211 209 206 210 199 211 197 206 217 206 203 192 192 203 216 220 214 204 214 218 217 216 210 227 238 232 237 243 250 257 263 262 260 271 279 283 296
211 217 221 216 213 209 209 194 187 217 217 211 205 212 210 214 213 202 205 211 213 216 221 216 231 237 243 248 247 253 258 263 261 264 269 273 281 298
216 217 219 220 214 214 210 205 207 211 218 217 211 216 213 203 202 202 208 206 205 209 209 209 217 230 244 247 246 248 253 255 252 261 268 275 285 300
215 216 218 214 210 209 207 208 206 212 211 220 218 217 217 212 203 202 206 202 199 208 214 222 232 232 240 247 247 253 250 248 247 256 262 272 283 305
218 218 222 215 209 208 209 207 212 216 211 213 217 210 212 207 203 203 197 197 194 198 201 208 221 229 235 240 246 246 248 247 246 254 261 273 279 291
223 219 218 216 213 215 210 211 213 214 211 211 214 208 207 203 199 199 195 191 193 199 198 205 213 221 224 230 235 240 243 242 248 253 256 256 268 305
220 217 217 221 218 217 218 218 220 212 209 209 213 216 213 207 202 199 197 187 189 198 201 204 216 217 220 223 231 237 235 236 243 244 248 252 275 315
222 221 223 219 215 215 215 219 219 220 226 224 219 218 217 209 205 198 196 193 196 199 199 204 214 215 219 221 226 230 230 232 240 240 243 259 281 293
224 220 221 217 214 209 208 208 209 214 214 220 226 224 222 217 214 208 202 202 205 203 204 203 211 216 219 223 228 229 229 232 234 233 246 264 279 285
221 227 219 220 211 210 207 201 199 204 204 207 213 221 227 216 209 202 198 200 195 200 204 213 214 216 218 222 226 231 236 235 224 231 248 265 268 281
218 221 219 212 209 208 200 196 194 193 189 188 201 213 219 214 211 211 213 208 199 193 201 200 202 206 202 214 225 233 224 216 231 235 238 241 249 271
211 214 213 209 213 205 199 196 196 184 183 183 180 174 175 176 186 200 209 214 206 204 212 207 206 205 207 206 213 217 220 225 224 223 218 223 235 255
213 205 202 204 200 193 193 197 191 190 186 181 179 180 179 177 176 183 190 200 206 213 224 219 222 221 215 205 199 212 216 221 219 221 215 216 232 239
209 195 186 182 182 191 191 194 187 182 177 171 172 176 181 186 186 194 197 205 212 211 212 218 221 223 217 218 215 218 209 211 218 218 210 211 226 224
170 165 164 169 174 177 182 181 179 179 182 183 185 191 197 202 202 203 207 208 206 203 201 198 210 213 210 211 215 209 207 203 211 207 200 215 209 211
152 148 150 156 162 171 178 179 181 186 192 199 208 214 221 220 223 220 216 208 202 196 188 191 193 194 197 202 201 209 205 199 192 198 201 200 198 193
133 136 141 146 151 155 160 172 187 197 204 207 207 205 200 195 195 194 200 198 196 192 193 190 185 178 183 189 195 193 188 196 186 190 194 194 192 183
122 124 127 134 137 142 148 154 160 170 177 186 188 185 187 188 189 187 189 192 191 189 189 186 186 187 178 173 177 183 193 188 190 189 188 188 179 174
110 112 115 118 122 126 132 136 141 149 158 170 174 179 182 182 181 181 185 185 181 178 178 181 183 185 192 186 179 183 184 187 185 184 182 179 175 173
106 109 111 112 114 119 122 124 127 133 139 146 155 168 173 176 175 176 178 178 174 173 174 176 179 182 185 184 188 184 184 180 179 179 182 181 178 171
97 100 106 114 122 127 129 132 132 132 135 141 150 160 166 172 175 176 179 177 179 180 181 181 182 185 188 187 188 184 179 177 177 179 181 186 176 173
97 101 104 104 107 112 119 127 135 140 147 153 155 161 166 171 177 182 184 184 185 185 187 185 184 184 185 182 186 181 178 177 177 178 182 188 175 174